Clinton, AR

9:03 AM CDT on October 21, 2017 (GMT -0500)
Clinton

Weather History for KCCA - January, 2013

Change the Weather History Date:

Tuesday, January 8, 2013

  Actual Average (KBVX) Record (KBVX)
Temperature  
Mean Temperature 40 °F -  
Max Temperature 55 °F 44 °F 75 °F (1969)
Min Temperature 26 °F 23 °F -4 °F (1988)
Degree Days  
Heating Degree Days 24    
Moisture  
Dew Point 33 °F    
Average Humidity 81    
Maximum Humidity 100    
Minimum Humidity 47    
Precipitation  
Precipitation 0.09 in - - ()
Sea Level Pressure  
Sea Level Pressure 30.20 in    
Wind  
Wind Speed 0 mph (South)    
Max Wind Speed 8 mph    
Max Gust Speed -    
Visibility 8 miles    
Events Rain    
Averages and records for this station are not official NWS values.
T = Trace of Precipitation, MM = Missing Value Source: NWS Daily Summary

Daily Weather History Graph

Daily Weather History Graph

Search for Another Location

Airport or City:

Trip Planner

Search our weather history database for the weather conditions in past years. The results will help you decide how hot, cold, wet, or windy it might be!

Date:

Astronomy

Jan. 08, 2013 Rise Set
Actual Time 7:19 AM CST 5:13 PM CST
Civil Twilight 6:51 AM CST 5:41 PM CST
Nautical Twilight 6:20 AM CST 6:13 PM CST
Astronomical Twilight 5:49 AM CST 6:44 PM CST
Moon 3:54 AM CST (1/8) 2:16 PM CST (1/8)
Length of Visible Light 10h 50m
Length of Day
9h 53m
Waning Crescent, 13% of the Moon is Illuminated
Jan 8
Waning Crescent
Jan 11
New
Jan 18
First Quarter
Jan 26
Full
Feb 3
Last Quarter

Hourly Weather History & Observations

Time (CST) Temp. Dew Point Humidity Pressure Visibility Wind Dir Wind Speed Gust Speed Precip Events Conditions
12:15 AM 28.4 °F 26.6 °F 93% 30.22 in 10.0 mi Calm Calm - N/A   Clear
12:35 AM 28.4 °F 26.6 °F 93% 30.21 in 10.0 mi Calm Calm - N/A   Clear
12:55 AM 28.4 °F 26.6 °F 93% 30.22 in 10.0 mi Calm Calm - N/A   Clear
1:15 AM 28.4 °F 26.6 °F 93% 30.22 in 8.0 mi Calm Calm - N/A   Clear
1:35 AM 26.6 °F 26.6 °F 100% 30.23 in 9.0 mi Calm Calm - N/A   Clear
1:55 AM 26.6 °F 26.6 °F 100% 30.22 in 8.0 mi Calm Calm - N/A   Clear
2:15 AM 26.6 °F 24.8 °F 93% 30.21 in 9.0 mi Calm Calm - N/A   Clear
2:35 AM 26.6 °F 26.6 °F 100% 30.21 in 7.0 mi Calm Calm - N/A   Clear
2:55 AM 26.6 °F 24.8 °F 93% 30.22 in 8.0 mi Calm Calm - N/A   Clear
3:15 AM 26.6 °F 26.6 °F 100% 30.21 in 8.0 mi Calm Calm - N/A   Clear
3:35 AM 28.4 °F 26.6 °F 93% 30.21 in 9.0 mi Calm Calm - N/A   Clear
3:55 AM 28.4 °F 26.6 °F 93% 30.21 in 8.0 mi Calm Calm - N/A   Clear
4:15 AM 28.4 °F 26.6 °F 93% 30.20 in 9.0 mi Calm Calm - N/A   Clear
4:35 AM 28.4 °F 26.6 °F 93% 30.20 in 9.0 mi Calm Calm - N/A   Clear
4:55 AM 28.4 °F 26.6 °F 93% 30.20 in 9.0 mi Calm Calm - N/A   Clear
5:15 AM 26.6 °F 26.6 °F 100% 30.20 in 9.0 mi Calm Calm - N/A   Clear
5:35 AM 26.6 °F 26.6 °F 100% 30.20 in 9.0 mi Calm Calm - N/A   Clear
5:55 AM 26.6 °F 26.6 °F 100% 30.21 in 9.0 mi Calm Calm - N/A   Clear
6:15 AM 26.6 °F 24.8 °F 93% 30.21 in 10.0 mi Calm Calm - N/A   Clear
6:55 AM 28.4 °F 26.6 °F 93% 30.22 in 9.0 mi Calm Calm - N/A   Overcast
7:15 AM 28.4 °F 26.6 °F 93% 30.23 in 8.0 mi Calm Calm - N/A   Mostly Cloudy
7:35 AM 28.4 °F 26.6 °F 93% 30.24 in 9.0 mi Calm Calm - N/A   Mostly Cloudy
7:55 AM 28.4 °F 26.6 °F 93% 30.24 in 9.0 mi Calm Calm - N/A   Mostly Cloudy
8:15 AM 28.4 °F 26.6 °F 93% 30.25 in 7.0 mi Calm Calm - N/A   Partly Cloudy
8:35 AM 28.4 °F 28.4 °F 100% 30.25 in 7.0 mi Calm Calm - N/A   Partly Cloudy
9:15 AM 32.0 °F 28.4 °F 87% 30.26 in 9.0 mi Calm Calm - N/A   Clear
9:35 AM 32.0 °F 28.4 °F 87% 30.26 in 10.0 mi Calm Calm - N/A   Clear
9:55 AM 33.8 °F 30.2 °F 87% 30.26 in 10.0 mi Calm Calm - N/A   Clear
10:15 AM 37.4 °F 30.2 °F 75% 30.25 in 10.0 mi Calm Calm - N/A   Partly Cloudy
10:35 AM 39.2 °F 32.0 °F 75% 30.24 in 10.0 mi Calm Calm - N/A   Mostly Cloudy
11:15 AM 46.4 °F 32.0 °F 57% 30.22 in 10.0 mi Calm Calm - N/A   Mostly Cloudy
11:35 AM 48.2 °F 32.0 °F 54% 30.22 in 10.0 mi Calm Calm - N/A   Scattered Clouds
11:55 AM 48.2 °F 32.0 °F 54% 30.19 in 10.0 mi Calm Calm - N/A   Partly Cloudy
12:35 PM 51.8 °F 32.0 °F 47% 30.16 in 10.0 mi Calm Calm - N/A   Clear
1:15 PM 53.6 °F 33.8 °F 47% 30.15 in 10.0 mi Calm Calm - N/A   Mostly Cloudy
1:35 PM 53.6 °F 33.8 °F 47% 30.14 in 10.0 mi Calm Calm - N/A   Mostly Cloudy
1:55 PM 55.4 °F 35.6 °F 47% 30.15 in 10.0 mi South 8.1 mph - N/A   Mostly Cloudy
2:15 PM 53.6 °F 35.6 °F 51% 30.13 in 10.0 mi Calm Calm - N/A   Mostly Cloudy
2:35 PM 55.4 °F 35.6 °F 47% 30.13 in 10.0 mi Calm Calm - N/A   Overcast
2:55 PM 55.4 °F 35.6 °F 47% 30.13 in 10.0 mi Calm Calm - N/A   Mostly Cloudy
3:15 PM 55.4 °F 35.6 °F 47% 30.15 in 10.0 mi Calm Calm - N/A   Mostly Cloudy
3:35 PM 55.4 °F 35.6 °F 47% 30.14 in 10.0 mi Calm Calm - N/A   Overcast
4:15 PM 53.6 °F 35.6 °F 51% 30.16 in 10.0 mi Calm Calm - N/A   Overcast
4:35 PM 53.6 °F 35.6 °F 51% 30.16 in 10.0 mi Calm Calm - N/A   Overcast
4:55 PM 53.6 °F 37.4 °F 54% 30.15 in 10.0 mi Calm Calm - N/A   Overcast
5:15 PM 53.6 °F 37.4 °F 54% 30.16 in 10.0 mi Calm Calm - N/A   Overcast
5:35 PM 51.8 °F 37.4 °F 58% 30.14 in 10.0 mi Calm Calm - N/A   Overcast
6:15 PM 50.0 °F 39.2 °F 66% 30.14 in 10.0 mi Calm Calm - N/A   Mostly Cloudy
6:35 PM 50.0 °F 37.4 °F 62% 30.14 in 10.0 mi Calm Calm - N/A   Scattered Clouds
7:35 PM 48.2 °F 39.2 °F 71% 30.16 in 10.0 mi Calm Calm - N/A   Overcast
7:55 PM 46.4 °F 41.0 °F 81% 30.17 in 10.0 mi Calm Calm - N/A   Overcast
8:15 PM 46.4 °F 39.2 °F 76% 30.18 in 9.0 mi Calm Calm - N/A Rain Light Rain
8:35 PM 46.4 °F 42.8 °F 87% 30.19 in 5.0 mi Calm Calm - N/A Rain Light Rain
8:55 PM 44.6 °F 42.8 °F 93% 30.19 in 5.0 mi Calm Calm - 0.02 in Rain Light Rain
9:15 PM 44.6 °F 44.6 °F 100% 30.19 in 5.0 mi Calm Calm - 0.01 in Rain Light Rain
9:35 PM 44.6 °F 44.6 °F 100% 30.19 in 3.0 mi Calm Calm - 0.01 in Rain Light Rain
9:55 PM 44.6 °F 44.6 °F 100% 30.19 in 5.0 mi Calm Calm - 0.02 in Rain Light Rain
10:15 PM 44.6 °F 44.6 °F 100% 30.19 in 3.0 mi Calm Calm - N/A Rain Light Rain
10:35 PM 44.6 °F 44.6 °F 100% 30.20 in 1.5 mi Calm Calm - 0.01 in Rain Light Rain
10:55 PM 46.4 °F 44.6 °F 93% 30.21 in 2.5 mi Calm Calm - 0.02 in Rain Light Rain
11:15 PM 46.4 °F 44.6 °F 93% 30.22 in 3.0 mi Calm Calm - 0.01 in Rain Light Rain
11:35 PM 44.6 °F 44.6 °F 100% 30.23 in 2.5 mi Calm Calm - 0.02 in Rain Light Rain
11:55 PM 44.6 °F 44.6 °F 100% 30.23 in 1.5 mi Calm Calm - 0.03 in Rain Light Rain